Location: Most
(50.5133°N, 13.6207°E)
Time: 02:57:10
(UTC+01:00)

Oscar 11 - Pass Details

Date: 30 November 2021
Orbit: 611 x 625 km, 97.6° (Epoch: 17 January)

Event Time Altitude Azimuth Distance (km) Brightness Sun altitude
Rises 06:22:41 0° 7° (N) 2,923 10.4 -12.2°
Reaches altitude 10° 06:24:59 10° 360° (N) 2,010 9.5 -11.9°
Maximum altitude 06:29:03 39° 292° (WNW) 951 7.5 -11.3°
Drops below altitude 10° 06:33:04 10° 224° (SW) 1,989 9.4 -10.7°
Sets 06:35:20 0° 217° (SW) 2,889 10.3 -10.3°
